Montauk, NY

12:54 PM EST on December 12, 2017 (GMT -0500)
Montauk

Weather History for KMTP - December, 2011

Change the Weather History Date:

Wednesday, December 21, 2011

  Actual Average (KHTO) Record (KHTO)
Temperature  
Mean Temperature 50 °F -  
Max Temperature 57 °F 42 °F 87 °F (2003)
Min Temperature 42 °F 28 °F -2 °F (1942)
Degree Days  
Heating Degree Days 16    
Moisture  
Dew Point 48 °F    
Average Humidity 87    
Maximum Humidity 97    
Minimum Humidity 70    
Precipitation  
Precipitation 0.09 in - - ()
Sea Level Pressure  
Sea Level Pressure 29.96 in    
Wind  
Wind Speed 6 mph (South)    
Max Wind Speed 26 mph    
Max Gust Speed 44 mph    
Averages and records for this station are not official NWS values.
T = Trace of Precipitation, MM = Missing Value Source: NWS Daily Summary

Daily Weather History Graph

Daily Weather History Graph

Search for Another Location

Airport or City:

Trip Planner

Search our weather history database for the weather conditions in past years. The results will help you decide how hot, cold, wet, or windy it might be!

Date:

Astronomy

Dec. 21, 2011 Rise Set
Actual Time 7:09 AM EST 4:22 PM EST
Civil Twilight 6:38 AM EST 4:53 PM EST
Nautical Twilight 6:03 AM EST 5:28 PM EST
Astronomical Twilight 5:29 AM EST 6:01 PM EST
Moon 3:38 AM EST (12/21) 1:39 PM EST (12/21)
Length of Visible Light 10h 15m
Length of Day
9h 12m
Waning Crescent, 12% of the Moon is Illuminated
Dec 21
Waning Crescent
Dec 24
New
Jan 1
First Quarter
Jan 9
Full
Jan 16
Last Quarter

Hourly Weather History & Observations

Time (EST) Temp. Windchill Dew Point Humidity Pressure Visibility Wind Dir Wind Speed Gust Speed Precip Events Conditions
12:54 AM 42.1 °F - 33.1 °F 70% 30.20 in - Calm Calm - N/A   Unknown
1:54 AM 42.1 °F - 34.0 °F 73% 30.19 in - Calm Calm - N/A   Unknown
2:54 AM 45.0 °F 42.6 °F 37.0 °F 74% 30.17 in - SSE 4.6 mph - N/A   Unknown
3:54 AM 46.9 °F - 37.9 °F 71% 30.15 in - SSE 5.8 mph - N/A   Unknown
4:54 AM 48.0 °F - 39.9 °F 74% 30.14 in - SSE 5.8 mph - N/A   Unknown
5:54 AM 48.9 °F - 42.1 °F 77% 30.12 in - South 5.8 mph - N/A   Unknown
6:54 AM 50.0 °F - 44.1 °F 80% 30.11 in - South 6.9 mph - N/A   Unknown
7:54 AM 51.1 °F - 46.0 °F 83% 30.08 in - South 6.9 mph - N/A   Unknown
8:54 AM 52.0 °F - 48.0 °F 86% 30.07 in - South 5.8 mph - N/A   Unknown
9:54 AM 54.0 °F - 48.9 °F 83% 30.05 in - South 10.4 mph 16.1 mph N/A   Unknown
10:54 AM 53.1 °F - 50.0 °F 89% 30.03 in - South 4.6 mph - N/A   Unknown
11:54 AM 54.0 °F - 51.1 °F 90% 29.98 in - South 5.8 mph - N/A   Unknown
12:54 PM 55.0 °F - 52.0 °F 89% 29.94 in - South 6.9 mph - N/A   Unknown
1:54 PM 55.0 °F - 53.1 °F 93% 29.91 in - SSW 10.4 mph 19.6 mph 0.01 in   Unknown
2:54 PM 55.0 °F - 53.1 °F 93% 29.88 in - South 11.5 mph 21.9 mph 0.01 in   Unknown
3:54 PM 55.9 °F - 54.0 °F 93% 29.86 in - SSW 13.8 mph 27.6 mph N/A   Unknown
4:54 PM 55.9 °F - 54.0 °F 93% 29.84 in - SSW 13.8 mph 23.0 mph N/A   Unknown
5:54 PM 55.0 °F - 54.0 °F 96% 29.83 in - SSW 11.5 mph 20.7 mph 0.02 in   Unknown
6:54 PM 55.0 °F - 54.0 °F 96% 29.80 in - SSW 12.7 mph 24.2 mph 0.05 in   Unknown
7:54 PM 55.9 °F - 55.0 °F 97% 29.78 in - SW 12.7 mph 26.5 mph N/A   Unknown
8:54 PM 57.0 °F - 55.0 °F 93% 29.77 in - SSW 13.8 mph 24.2 mph N/A   Unknown
9:54 PM 55.9 °F - 55.0 °F 97% 29.75 in - SW 9.2 mph 23.0 mph N/A   Unknown
10:54 PM 55.9 °F - 55.0 °F 97% 29.73 in - SW 13.8 mph 25.3 mph N/A   Unknown
11:54 PM 57.0 °F - 55.0 °F 93% 29.73 in - WSW 26.5 mph 43.7 mph N/A   Unknown